Pond Inlet,

1:38 PM EDT on September 20, 2017 (GMT -0400)
Pond Inlet

Weather History for CYIO - September, 2012

Change the Weather History Date:

Monday, September 3, 2012

  Actual Average Record
Temperature  
Mean Temperature 36 °F -  
Max Temperature 41 °F 32 °F 46 °F (2010)
Min Temperature 30 °F 24 °F 23 °F (1997)
Degree Days  
Heating Degree Days 30    
Moisture  
Dew Point 32 °F    
Average Humidity 83    
Maximum Humidity 100    
Minimum Humidity 61    
Precipitation  
Precipitation 0.00 in - - ()
Sea Level Pressure  
Sea Level Pressure 29.82 in    
Wind  
Wind Speed 6 mph ()    
Max Wind Speed 15 mph    
Max Gust Speed 18 mph    
Visibility 9.0 miles    
Events Rain    
Averages and records for this station are not official NWS values.
T = Trace of Precipitation, MM = Missing Value Source: Averaged Metar Reports

Daily Weather History Graph

Daily Weather History Graph

Search for Another Location

Airport or City:

Trip Planner

Search our weather history database for the weather conditions in past years. The results will help you decide how hot, cold, wet, or windy it might be!

Date:

Astronomy

Sep. 03, 2012 Rise Set
Actual Time 5:21 AM EDT 8:57 PM EDT
Civil Twilight 3:50 AM EDT 10:25 PM EDT
Nautical Twilight Sun does not set Sun does not set
Astronomical Twilight Sun does not set Sun does not set
Moon 6:57 PM EDT (9/3) 11:34 AM EDT (9/3)
Length of Visible Light 18h 35m
Length of Day
15h 36m
Waning Gibbous, 90% of the Moon is Illuminated
Sep 3
Waning Gibbous
Sep 8
Last Quarter
Sep 15
New
Sep 22
First Quarter
Sep 29
Full

Hourly Weather History & Observations

Time (EDT) Temp. Windchill Dew Point Humidity Pressure Visibility Wind Dir Wind Speed Gust Speed Precip Events Conditions
12:00 AM 33.8 °F - 28.4 °F 81% 29.73 in 9.0 mi Calm Calm - N/A   Clear
1:00 AM 32.0 °F 28.7 °F 28.4 °F 87% 29.74 in 9.0 mi SSE 3.5 mph - N/A   Clear
2:00 AM 31 °F - 27 °F 79% 29.75 in 9 mi SSE 5.8 mph - -  
2:00 AM 30.2 °F 24.3 °F 26.6 °F 86% 29.75 in 9.0 mi SSE 5.8 mph - N/A   Clear
3:00 AM 32.0 °F 26.4 °F 26.6 °F 80% 29.77 in 9.0 mi South 5.8 mph - N/A   Clear
4:00 AM 35.6 °F 31.7 °F 28.4 °F 75% 29.79 in 9.0 mi SW 4.6 mph - N/A   Clear
5:00 AM 30 °F - 25 °F 75% 29.81 in 9 mi SSE 6.9 mph - -  
5:00 AM 30.2 °F 23.4 °F 24.8 °F 80% 29.81 in 9.0 mi SSE 6.9 mph - N/A   Clear
6:00 AM 30.2 °F 22.6 °F 26.6 °F 86% 29.82 in 9.0 mi South 8.1 mph - N/A   Clear
7:00 AM 33.8 °F 26.4 °F 28.4 °F 81% 29.83 in 9.0 mi SSE 9.2 mph - N/A   Clear
8:00 AM 36 °F - 29 °F 69% 29.84 in 9 mi SSW 8.1 mph - -  
8:00 AM 35.6 °F 29.2 °F 30.2 °F 81% 29.84 in 9.0 mi SSW 8.1 mph - N/A   Partly Cloudy
9:00 AM 37.4 °F 30.3 °F 32.0 °F 81% 29.85 in 9.0 mi SSW 10.4 mph - N/A   Clear
10:00 AM 39.2 °F 30.8 °F 32.0 °F 75% 29.85 in 9.0 mi SW 15.0 mph - N/A   Clear
11:00 AM 40 °F - 31 °F 61% 29.86 in 9 mi WSW 15.0 mph - -  
11:00 AM 39.2 °F 30.8 °F 32.0 °F 75% 29.86 in 9.0 mi WSW 15.0 mph - N/A   Clear
12:00 PM 41.0 °F 34.7 °F 30.2 °F 65% 29.86 in 9.0 mi WSW 10.4 mph - N/A   Clear
1:00 PM 39.2 °F 35.0 °F 32.0 °F 75% 29.86 in 9.0 mi West 5.8 mph - N/A   Clear
2:00 PM 40 °F - 33 °F 67% 29.86 in 9 mi NW 4.6 mph - -  
2:00 PM 39.2 °F 37.0 °F 32.0 °F 75% 29.86 in 9.0 mi NW 3.5 mph - N/A   Clear
3:00 PM 39.2 °F 37.0 °F 32.0 °F 75% 29.85 in 9.0 mi WNW 3.5 mph - N/A   Partly Cloudy
4:00 PM 39.2 °F - 32.0 °F 75% 29.84 in 9.0 mi WNW 2.3 mph - N/A   Partly Cloudy
5:00 PM 39 °F - 33 °F 70% 29.85 in 9 mi Calm Calm - -  
5:00 PM 39.2 °F - 32.0 °F 75% 29.85 in 9.0 mi Calm Calm - N/A   Partly Cloudy
6:00 PM 39.2 °F - 32.0 °F 75% 29.85 in 9.0 mi Calm Calm - N/A   Overcast
7:00 PM 39.2 °F 34.2 °F 33.8 °F 81% 29.85 in 9.0 mi WSW 6.9 mph - N/A   Overcast
7:12 PM 37.4 °F 29.3 °F 33.8 °F 87% 29.84 in 9.0 mi West 12.7 mph 18.4 mph N/A   Overcast
7:33 PM 37.4 °F 28.9 °F 35.6 °F 93% 29.84 in 9.0 mi West 13.8 mph - N/A Rain Light Rain
7:42 PM 37.4 °F 29.3 °F 35.6 °F 93% 29.82 in 9.0 mi West 12.7 mph - N/A Rain Light Rain
7:43 PM 37.4 °F 29.3 °F 35.6 °F 93% 29.82 in 9.0 mi West 12.7 mph - N/A Rain Light Rain
7:46 PM 37.4 °F 29.3 °F 35.6 °F 93% 29.82 in 9.0 mi West 12.7 mph - N/A Rain Light Rain
7:51 PM 37.4 °F 30.3 °F 35.6 °F 93% 29.82 in 9.0 mi West 10.4 mph - N/A Rain Light Rain
8:00 PM 37 °F - 35 °F 91% 29.84 in 9 mi West 10.4 mph - -   Overcast
8:00 PM 37.4 °F 30.8 °F 35.6 °F 93% 29.84 in 9.0 mi West 9.2 mph - N/A Rain Light Rain
8:23 PM 37.4 °F 31.4 °F 35.6 °F 93% 29.84 in 9.0 mi West 8.1 mph - N/A Rain Light Rain
8:26 PM 37.4 °F 31.4 °F 35.6 °F 93% 29.83 in 9.0 mi West 8.1 mph - N/A Rain Light Rain
8:51 PM 37.4 °F 32.1 °F 35.6 °F 93% 29.81 in 9.0 mi West 6.9 mph - N/A   Overcast
9:00 PM 37.4 °F 32.8 °F 35.6 °F 93% 29.83 in 9.0 mi WSW 5.8 mph - N/A   Overcast
9:11 PM 35.6 °F 31.7 °F 35.6 °F 100% 29.83 in 9.0 mi South 4.6 mph - N/A   Overcast
10:00 PM 35.6 °F 31.7 °F 35.6 °F 100% 29.82 in 9.0 mi ESE 4.6 mph - N/A   Overcast
10:40 PM 37.4 °F - 35.6 °F 93% 29.78 in 9.0 mi North 2.3 mph - N/A   Overcast
10:49 PM 37.4 °F 34.9 °F 35.6 °F 93% 29.78 in 9.0 mi North 3.5 mph - N/A   Overcast
11:00 PM 36 °F - 35 °F 95% 29.81 in 9 mi North 3.5 mph - -   Overcast
11:00 PM 37.4 °F - 35.6 °F 93% 29.81 in 9.0 mi North 2.3 mph - N/A   Overcast